contact:dominique.lefevre@mio.osupytheas.fr, maurice.libes@osupytheas.fr, didier.mallarino@osupytheas.fr
Project:EMSO http://www.emso-fr.org/EMSO-France
Depth: 2436.0 m
Title:EMSO Ligure Ouest : Data MII capteur OXYGEN
DateTime,Latitude,Longitude,Optode-Type,Optode_Serial,Oxygen,Saturation_Oxygen,Temperature
DateTime,Latitude,Longitude,Optode-Type,Optode_Serial,µmol.l-1,%,degC
2017-10-07T00:02:01,42.805,6.029,4330,1995,199.581,61.031,13.286
2017-10-07T00:05:01,42.805,6.029,4330,1995,199.570,61.028,13.286
2017-10-07T00:08:01,42.805,6.029,4330,1995,199.519,61.013,13.286
2017-10-07T00:11:01,42.805,6.029,4330,1995,199.613,61.041,13.286
2017-10-07T00:14:01,42.805,6.029,4330,1995,199.622,61.044,13.286
2017-10-07T00:17:01,42.805,6.029,4330,1995,199.469,60.997,13.286
2017-10-07T00:20:01,42.805,6.029,4330,1995,199.426,60.985,13.286
2017-10-07T00:23:01,42.805,6.029,4330,1995,199.435,60.987,13.286
2017-10-07T00:26:01,42.805,6.029,4330,1995,199.525,61.015,13.286
2017-10-07T00:29:01,42.805,6.029,4330,1995,199.540,61.019,13.286
2017-10-07T00:32:01,42.805,6.029,4330,1995,199.607,61.039,13.286
2017-10-07T00:35:01,42.805,6.029,4330,1995,199.675,61.060,13.286
2017-10-07T00:38:01,42.805,6.029,4330,1995,199.717,61.073,13.286
2017-10-07T00:41:01,42.805,6.029,4330,1995,199.725,61.076,13.286
2017-10-07T00:44:01,42.805,6.029,4330,1995,199.755,61.085,13.286
2017-10-07T00:47:01,42.805,6.029,4330,1995,199.547,61.021,13.286
2017-10-07T00:50:01,42.805,6.029,4330,1995,199.616,61.042,13.286
2017-10-07T00:53:01,42.805,6.029,4330,1995,199.756,61.085,13.286
2017-10-07T00:56:01,42.805,6.029,4330,1995,199.856,61.116,13.286
2017-10-07T00:59:01,42.805,6.029,4330,1995,199.849,61.114,13.286
2017-10-07T01:02:01,42.805,6.029,4330,1995,199.780,61.092,13.286
2017-10-07T01:05:01,42.805,6.029,4330,1995,199.547,61.022,13.286
2017-10-07T01:08:01,42.805,6.029,4330,1995,199.561,61.026,13.286
2017-10-07T01:11:01,42.805,6.029,4330,1995,199.321,60.953,13.286
2017-10-07T01:14:01,42.805,6.029,4330,1995,199.426,60.985,13.286
2017-10-07T01:17:01,42.805,6.029,4330,1995,199.475,60.999,13.286
2017-10-07T01:20:01,42.805,6.029,4330,1995,199.364,60.966,13.286
2017-10-07T01:23:01,42.805,6.029,4330,1995,199.289,60.943,13.286
2017-10-07T01:26:01,42.805,6.029,4330,1995,199.296,60.945,13.286
2017-10-07T01:29:01,42.805,6.029,4330,1995,199.369,60.967,13.286
2017-10-07T01:32:01,42.805,6.029,4330,1995,199.360,60.964,13.286
2017-10-07T01:35:01,42.805,6.029,4330,1995,199.350,60.961,13.286
2017-10-07T01:38:01,42.805,6.029,4330,1995,199.204,60.916,13.286
2017-10-07T01:41:01,42.805,6.029,4330,1995,199.323,60.953,13.286
2017-10-07T01:44:01,42.805,6.029,4330,1995,199.271,60.937,13.286
2017-10-07T01:47:01,42.805,6.029,4330,1995,199.311,60.949,13.286
2017-10-07T01:50:01,42.805,6.029,4330,1995,199.214,60.919,13.286
2017-10-07T01:53:01,42.805,6.029,4330,1995,199.330,60.955,13.286
2017-10-07T01:56:01,42.805,6.029,4330,1995,199.294,60.944,13.286
2017-10-07T01:59:01,42.805,6.029,4330,1995,199.311,60.949,13.286
2017-10-07T02:02:01,42.805,6.029,4330,1995,199.262,60.934,13.286
2017-10-07T02:05:01,42.805,6.029,4330,1995,199.257,60.933,13.286
2017-10-07T02:08:01,42.805,6.029,4330,1995,199.242,60.928,13.286
2017-10-07T02:11:01,42.805,6.029,4330,1995,199.154,60.902,13.286
2017-10-07T02:14:01,42.805,6.029,4330,1995,199.243,60.929,13.286
2017-10-07T02:17:01,42.805,6.029,4330,1995,199.253,60.931,13.286
2017-10-07T02:20:01,42.805,6.029,4330,1995,199.188,60.912,13.286
2017-10-07T02:23:01,42.805,6.029,4330,1995,199.221,60.921,13.286
2017-10-07T02:26:01,42.805,6.029,4330,1995,199.178,60.909,13.286
2017-10-07T02:29:01,42.805,6.029,4330,1995,199.318,60.951,13.286
2017-10-07T02:32:01,42.805,6.029,4330,1995,199.238,60.927,13.286
2017-10-07T02:35:01,42.805,6.029,4330,1995,199.246,60.929,13.286
2017-10-07T02:38:01,42.805,6.029,4330,1995,199.252,60.931,13.286
2017-10-07T02:41:01,42.805,6.029,4330,1995,199.245,60.929,13.286
2017-10-07T02:44:01,42.805,6.029,4330,1995,199.187,60.911,13.286
2017-10-07T02:47:01,42.805,6.029,4330,1995,199.236,60.927,13.286
2017-10-07T02:50:01,42.805,6.029,4330,1995,199.203,60.916,13.286
2017-10-07T02:53:01,42.805,6.029,4330,1995,199.242,60.928,13.286
2017-10-07T02:56:01,42.805,6.029,4330,1995,199.252,60.931,13.286
2017-10-07T02:59:01,42.805,6.029,4330,1995,199.346,60.960,13.286
2017-10-07T03:02:01,42.805,6.029,4330,1995,199.301,60.946,13.286
2017-10-07T03:05:01,42.805,6.029,4330,1995,199.339,60.958,13.286
2017-10-07T03:08:01,42.805,6.029,4330,1995,199.277,60.939,13.286
2017-10-07T03:11:01,42.805,6.029,4330,1995,199.153,60.901,13.286
2017-10-07T03:14:01,42.805,6.029,4330,1995,199.208,60.918,13.286
2017-10-07T03:17:01,42.805,6.029,4330,1995,199.236,60.926,13.286
2017-10-07T03:20:01,42.805,6.029,4330,1995,199.238,60.927,13.286
2017-10-07T03:23:01,42.805,6.029,4330,1995,199.285,60.941,13.286
2017-10-07T03:26:01,42.805,6.029,4330,1995,199.266,60.936,13.286
2017-10-07T03:29:01,42.805,6.029,4330,1995,199.307,60.948,13.286
2017-10-07T03:32:01,42.805,6.029,4330,1995,199.203,60.916,13.286
2017-10-07T03:35:01,42.805,6.029,4330,1995,199.182,60.910,13.286
2017-10-07T03:38:01,42.805,6.029,4330,1995,199.208,60.918,13.286
2017-10-07T03:41:01,42.805,6.029,4330,1995,199.141,60.897,13.286
2017-10-07T03:44:01,42.805,6.029,4330,1995,199.182,60.910,13.286
2017-10-07T03:47:01,42.805,6.029,4330,1995,199.272,60.937,13.286
2017-10-07T03:50:01,42.805,6.029,4330,1995,199.253,60.932,13.286
2017-10-07T03:53:01,42.805,6.029,4330,1995,199.232,60.925,13.286
2017-10-07T03:56:01,42.805,6.029,4330,1995,199.303,60.947,13.286
2017-10-07T03:59:01,42.805,6.029,4330,1995,199.247,60.930,13.286
2017-10-07T04:02:01,42.805,6.029,4330,1995,199.178,60.908,13.286
2017-10-07T04:05:01,42.805,6.029,4330,1995,199.034,60.865,13.286
2017-10-07T04:08:01,42.805,6.029,4330,1995,199.124,60.892,13.286
2017-10-07T04:11:01,42.805,6.029,4330,1995,199.046,60.868,13.286
2017-10-07T04:14:01,42.805,6.029,4330,1995,199.093,60.883,13.286
2017-10-07T04:17:01,42.805,6.029,4330,1995,199.251,60.931,13.286
2017-10-07T04:20:01,42.805,6.029,4330,1995,199.274,60.938,13.286
2017-10-07T04:23:01,42.805,6.029,4330,1995,199.552,61.023,13.286
2017-10-07T04:26:01,42.805,6.029,4330,1995,199.421,60.983,13.286
2017-10-07T04:29:01,42.805,6.029,4330,1995,199.605,61.039,13.286
2017-10-07T04:32:01,42.805,6.029,4330,1995,199.637,61.049,13.286
2017-10-07T04:35:01,42.805,6.029,4330,1995,199.642,61.050,13.286
2017-10-07T04:38:01,42.805,6.029,4330,1995,199.678,61.061,13.286
2017-10-07T04:41:01,42.805,6.029,4330,1995,199.766,61.088,13.286
2017-10-07T04:44:01,42.805,6.029,4330,1995,199.770,61.090,13.286
2017-10-07T04:47:01,42.805,6.029,4330,1995,199.797,61.098,13.286
2017-10-07T04:50:01,42.805,6.029,4330,1995,199.596,61.037,13.286
2017-10-07T04:53:01,42.805,6.029,4330,1995,199.476,61.000,13.286
2017-10-07T04:56:01,42.805,6.029,4330,1995,199.690,61.065,13.286
2017-10-07T04:59:01,42.805,6.029,4330,1995,199.752,61.084,13.286
2017-10-07T05:02:01,42.805,6.029,4330,1995,199.875,61.122,13.286
2017-10-07T05:05:01,42.805,6.029,4330,1995,199.591,61.035,13.286
2017-10-07T05:08:01,42.805,6.029,4330,1995,199.659,61.056,13.286
2017-10-07T05:11:01,42.805,6.029,4330,1995,199.923,61.136,13.286
2017-10-07T05:14:01,42.805,6.029,4330,1995,199.835,61.110,13.286
2017-10-07T05:17:01,42.805,6.029,4330,1995,199.662,61.057,13.286
2017-10-07T05:20:01,42.805,6.029,4330,1995,199.774,61.091,13.286
2017-10-07T05:23:01,42.805,6.029,4330,1995,199.845,61.113,13.286
2017-10-07T05:26:01,42.805,6.029,4330,1995,199.734,61.079,13.286
2017-10-07T05:29:01,42.805,6.029,4330,1995,200.091,61.188,13.286
2017-10-07T05:32:01,42.805,6.029,4330,1995,199.899,61.129,13.286
2017-10-07T05:35:01,42.805,6.029,4330,1995,199.682,61.062,13.286
2017-10-07T05:38:01,42.805,6.029,4330,1995,199.861,61.118,13.286
2017-10-07T05:41:01,42.805,6.029,4330,1995,199.869,61.120,13.286
2017-10-07T05:44:01,42.805,6.029,4330,1995,199.654,61.054,13.286
2017-10-07T05:47:01,42.805,6.029,4330,1995,199.592,61.035,13.286
2017-10-07T05:50:01,42.805,6.029,4330,1995,199.769,61.089,13.286
2017-10-07T05:53:01,42.805,6.029,4330,1995,199.916,61.134,13.286
2017-10-07T05:56:01,42.805,6.029,4330,1995,199.879,61.123,13.286
2017-10-07T05:59:01,42.805,6.029,4330,1995,199.860,61.117,13.286
2017-10-07T06:02:01,42.805,6.029,4330,1995,199.892,61.127,13.286
2017-10-07T06:05:01,42.805,6.029,4330,1995,199.825,61.107,13.286
2017-10-07T06:08:01,42.805,6.029,4330,1995,199.796,61.098,13.286
2017-10-07T06:11:01,42.805,6.029,4330,1995,199.948,61.144,13.286
2017-10-07T06:14:01,42.805,6.029,4330,1995,199.934,61.139,13.286
2017-10-07T06:17:01,42.805,6.029,4330,1995,200.020,61.166,13.286
2017-10-07T06:20:01,42.805,6.029,4330,1995,199.924,61.137,13.286
2017-10-07T06:23:01,42.805,6.029,4330,1995,199.920,61.136,13.286
2017-10-07T06:26:01,42.805,6.029,4330,1995,199.754,61.085,13.286
2017-10-07T06:29:01,42.805,6.029,4330,1995,199.812,61.103,13.286
2017-10-07T06:32:01,42.805,6.029,4330,1995,199.839,61.111,13.286
2017-10-07T06:35:01,42.805,6.029,4330,1995,199.735,61.079,13.286
2017-10-07T06:38:01,42.805,6.029,4330,1995,199.684,61.063,13.286
2017-10-07T06:41:01,42.805,6.029,4330,1995,199.719,61.074,13.286
2017-10-07T06:44:01,42.805,6.029,4330,1995,199.845,61.113,13.286
2017-10-07T06:47:01,42.805,6.029,4330,1995,199.784,61.094,13.286
2017-10-07T06:50:01,42.805,6.029,4330,1995,199.694,61.067,13.286
2017-10-07T06:53:01,42.805,6.029,4330,1995,199.720,61.075,13.286
2017-10-07T06:56:01,42.805,6.029,4330,1995,199.699,61.068,13.286
2017-10-07T06:59:01,42.805,6.029,4330,1995,199.723,61.075,13.286
2017-10-07T07:02:01,42.805,6.029,4330,1995,199.733,61.078,13.286
2017-10-07T07:05:01,42.805,6.029,4330,1995,199.867,61.119,13.286
2017-10-07T07:08:01,42.805,6.029,4330,1995,199.879,61.123,13.286
2017-10-07T07:11:01,42.805,6.029,4330,1995,199.894,61.128,13.286
2017-10-07T07:14:01,42.805,6.029,4330,1995,199.942,61.142,13.286
2017-10-07T07:17:01,42.805,6.029,4330,1995,199.816,61.104,13.286
2017-10-07T07:20:01,42.805,6.029,4330,1995,199.803,61.100,13.286
2017-10-07T07:23:01,42.805,6.029,4330,1995,199.882,61.124,13.286
2017-10-07T07:26:01,42.805,6.029,4330,1995,199.763,61.088,13.286
2017-10-07T07:29:01,42.805,6.029,4330,1995,199.804,61.100,13.286
2017-10-07T07:32:01,42.805,6.029,4330,1995,199.863,61.118,13.286
2017-10-07T07:35:01,42.805,6.029,4330,1995,199.897,61.129,13.286
2017-10-07T07:38:01,42.805,6.029,4330,1995,199.856,61.116,13.286
2017-10-07T07:41:01,42.805,6.029,4330,1995,199.861,61.118,13.286
2017-10-07T07:44:01,42.805,6.029,4330,1995,199.923,61.137,13.286
2017-10-07T07:47:01,42.805,6.029,4330,1995,199.963,61.149,13.286
2017-10-07T07:50:01,42.805,6.029,4330,1995,200.045,61.174,13.286
2017-10-07T07:53:01,42.805,6.029,4330,1995,199.857,61.116,13.286
2017-10-07T07:56:01,42.805,6.029,4330,1995,200.045,61.174,13.286
2017-10-07T07:59:01,42.805,6.029,4330,1995,200.059,61.178,13.286
2017-10-07T08:02:01,42.805,6.029,4330,1995,200.028,61.169,13.286
2017-10-07T08:05:01,42.805,6.029,4330,1995,200.060,61.178,13.286
2017-10-07T08:08:01,42.805,6.029,4330,1995,199.954,61.146,13.286
2017-10-07T08:11:01,42.805,6.029,4330,1995,199.893,61.128,13.286
2017-10-07T08:14:01,42.805,6.029,4330,1995,199.889,61.126,13.286
2017-10-07T08:17:01,42.805,6.029,4330,1995,199.913,61.134,13.286
2017-10-07T08:20:01,42.805,6.029,4330,1995,199.930,61.138,13.286
2017-10-07T08:23:01,42.805,6.029,4330,1995,200.094,61.189,13.286
2017-10-07T08:26:01,42.805,6.029,4330,1995,200.066,61.181,13.286
2017-10-07T08:29:01,42.805,6.029,4330,1995,199.978,61.153,13.286
2017-10-07T08:32:01,42.805,6.029,4330,1995,199.999,61.160,13.286
2017-10-07T08:35:01,42.805,6.029,4330,1995,200.078,61.184,13.286
2017-10-07T08:38:01,42.805,6.029,4330,1995,199.962,61.149,13.286
2017-10-07T08:41:01,42.805,6.029,4330,1995,199.905,61.131,13.286
2017-10-07T08:44:01,42.805,6.029,4330,1995,199.908,61.132,13.286
2017-10-07T08:47:01,42.805,6.029,4330,1995,200.036,61.171,13.286
2017-10-07T08:50:01,42.805,6.029,4330,1995,199.993,61.158,13.286
2017-10-07T08:53:01,42.805,6.029,4330,1995,200.040,61.172,13.286
2017-10-07T08:56:01,42.805,6.029,4330,1995,199.953,61.146,13.286
2017-10-07T08:59:01,42.805,6.029,4330,1995,199.919,61.135,13.286
2017-10-07T09:02:01,42.805,6.029,4330,1995,199.978,61.154,13.286
2017-10-07T09:05:01,42.805,6.029,4330,1995,199.804,61.100,13.286
2017-10-07T09:08:01,42.805,6.029,4330,1995,199.726,61.077,13.286
2017-10-07T09:11:01,42.805,6.029,4330,1995,199.780,61.093,13.286
2017-10-07T09:14:01,42.805,6.029,4330,1995,199.773,61.091,13.286
2017-10-07T09:17:01,42.805,6.029,4330,1995,199.776,61.092,13.287
2017-10-07T09:20:01,42.805,6.029,4330,1995,199.962,61.149,13.286
2017-10-07T09:23:01,42.805,6.029,4330,1995,199.892,61.127,13.286
2017-10-07T09:26:01,42.805,6.029,4330,1995,199.871,61.121,13.286
2017-10-07T09:29:01,42.805,6.029,4330,1995,199.989,61.157,13.286
2017-10-07T09:32:01,42.805,6.029,4330,1995,199.851,61.115,13.287
2017-10-07T09:35:01,42.805,6.029,4330,1995,199.804,61.101,13.287
2017-10-07T09:38:01,42.805,6.029,4330,1995,199.720,61.075,13.287
2017-10-07T09:41:01,42.805,6.029,4330,1995,199.839,61.111,13.286
2017-10-07T09:44:01,42.805,6.029,4330,1995,199.973,61.152,13.286
2017-10-07T09:47:01,42.805,6.029,4330,1995,199.930,61.139,13.286
2017-10-07T09:50:01,42.805,6.029,4330,1995,200.121,61.197,13.286
2017-10-07T09:53:01,42.805,6.029,4330,1995,200.164,61.210,13.286
2017-10-07T09:56:01,42.805,6.029,4330,1995,200.138,61.202,13.286
2017-10-07T09:59:01,42.805,6.029,4330,1995,200.201,61.222,13.286
2017-10-07T10:02:01,42.805,6.029,4330,1995,200.133,61.201,13.286
2017-10-07T10:05:01,42.805,6.029,4330,1995,200.034,61.171,13.286
2017-10-07T10:08:01,42.805,6.029,4330,1995,200.050,61.175,13.286
2017-10-07T10:11:01,42.805,6.029,4330,1995,200.125,61.198,13.286
2017-10-07T10:14:01,42.805,6.029,4330,1995,200.167,61.211,13.286
2017-10-07T10:17:01,42.805,6.029,4330,1995,200.146,61.204,13.286
2017-10-07T10:20:01,42.805,6.029,4330,1995,200.200,61.221,13.286
2017-10-07T10:23:01,42.805,6.029,4330,1995,200.297,61.251,13.286
2017-10-07T10:26:01,42.805,6.029,4330,1995,200.213,61.225,13.286
2017-10-07T10:29:01,42.805,6.029,4330,1995,200.245,61.235,13.286
2017-10-07T10:32:01,42.805,6.029,4330,1995,200.221,61.228,13.286
2017-10-07T10:35:01,42.805,6.029,4330,1995,200.181,61.215,13.286
2017-10-07T10:38:01,42.805,6.029,4330,1995,200.181,61.216,13.286
2017-10-07T10:41:01,42.805,6.029,4330,1995,199.957,61.148,13.287
2017-10-07T10:44:01,42.805,6.029,4330,1995,199.844,61.113,13.287
2017-10-07T10:47:01,42.805,6.029,4330,1995,199.957,61.148,13.287
2017-10-07T10:50:01,42.805,6.029,4330,1995,200.074,61.183,13.286
2017-10-07T10:53:01,42.805,6.029,4330,1995,200.157,61.208,13.286
2017-10-07T10:56:01,42.805,6.029,4330,1995,200.122,61.197,13.286
2017-10-07T10:59:01,42.805,6.029,4330,1995,200.097,61.190,13.286
2017-10-07T11:02:01,42.805,6.029,4330,1995,200.112,61.194,13.286
2017-10-07T11:05:01,42.805,6.029,4330,1995,200.080,61.185,13.286
2017-10-07T11:08:01,42.805,6.029,4330,1995,200.070,61.182,13.286
2017-10-07T11:11:01,42.805,6.029,4330,1995,200.115,61.195,13.286
2017-10-07T11:14:01,42.805,6.029,4330,1995,200.058,61.177,13.286
2017-10-07T11:17:01,42.805,6.029,4330,1995,200.093,61.189,13.286
2017-10-07T11:20:01,42.805,6.029,4330,1995,199.927,61.138,13.286
2017-10-07T11:23:01,42.805,6.029,4330,1995,199.940,61.142,13.286
2017-10-07T11:26:01,42.805,6.029,4330,1995,199.923,61.137,13.286
2017-10-07T11:29:01,42.805,6.029,4330,1995,200.004,61.162,13.286
2017-10-07T11:32:01,42.805,6.029,4330,1995,200.070,61.182,13.286
2017-10-07T11:35:01,42.805,6.029,4330,1995,199.988,61.157,13.286
2017-10-07T11:38:01,42.805,6.029,4330,1995,199.867,61.120,13.286
2017-10-07T11:41:01,42.805,6.029,4330,1995,199.925,61.138,13.287
2017-10-07T11:44:01,42.805,6.029,4330,1995,199.797,61.098,13.286
2017-10-07T11:47:01,42.805,6.029,4330,1995,199.853,61.115,13.286
2017-10-07T11:50:01,42.805,6.029,4330,1995,199.974,61.153,13.286
2017-10-07T11:53:01,42.805,6.029,4330,1995,199.850,61.115,13.286
2017-10-07T11:56:01,42.805,6.029,4330,1995,199.901,61.130,13.286
2017-10-07T11:59:01,42.805,6.029,4330,1995,199.883,61.124,13.286
2017-10-07T12:02:01,42.805,6.029,4330,1995,199.756,61.086,13.286
2017-10-07T12:05:01,42.805,6.029,4330,1995,199.798,61.098,13.286
2017-10-07T12:08:01,42.805,6.029,4330,1995,199.844,61.113,13.286
2017-10-07T12:11:01,42.805,6.029,4330,1995,199.916,61.135,13.286
2017-10-07T12:14:01,42.805,6.029,4330,1995,200.056,61.177,13.286
2017-10-07T12:17:01,42.805,6.029,4330,1995,200.068,61.181,13.286
2017-10-07T12:20:01,42.805,6.029,4330,1995,199.943,61.143,13.286
2017-10-07T12:23:01,42.805,6.029,4330,1995,199.919,61.135,13.286
2017-10-07T12:26:01,42.805,6.029,4330,1995,200.019,61.166,13.286
2017-10-07T12:29:01,42.805,6.029,4330,1995,199.999,61.160,13.286
2017-10-07T12:32:01,42.805,6.029,4330,1995,199.963,61.149,13.286
2017-10-07T12:35:01,42.805,6.029,4330,1995,199.840,61.111,13.286
2017-10-07T12:38:01,42.805,6.029,4330,1995,199.954,61.146,13.286
2017-10-07T12:41:01,42.805,6.029,4330,1995,199.983,61.155,13.286
2017-10-07T12:44:01,42.805,6.029,4330,1995,199.864,61.119,13.286
2017-10-07T12:47:01,42.805,6.029,4330,1995,199.837,61.110,13.286
2017-10-07T12:50:01,42.805,6.029,4330,1995,199.956,61.146,13.286
2017-10-07T12:53:01,42.805,6.029,4330,1995,199.982,61.155,13.286
2017-10-07T12:56:01,42.805,6.029,4330,1995,200.090,61.187,13.286
2017-10-07T12:59:01,42.805,6.029,4330,1995,200.062,61.179,13.286
2017-10-07T13:02:01,42.805,6.029,4330,1995,200.016,61.165,13.286
2017-10-07T13:05:01,42.805,6.029,4330,1995,200.107,61.193,13.286
2017-10-07T13:08:01,42.805,6.029,4330,1995,200.148,61.205,13.286
2017-10-07T13:11:01,42.805,6.029,4330,1995,200.157,61.208,13.286
2017-10-07T13:14:01,42.805,6.029,4330,1995,200.043,61.174,13.286
2017-10-07T13:17:01,42.805,6.029,4330,1995,199.996,61.159,13.286
2017-10-07T13:20:01,42.805,6.029,4330,1995,199.873,61.122,13.287
2017-10-07T13:23:01,42.805,6.029,4330,1995,199.980,61.153,13.286
2017-10-07T13:26:01,42.805,6.029,4330,1995,200.082,61.185,13.286
2017-10-07T13:29:01,42.805,6.029,4330,1995,200.122,61.197,13.286
2017-10-07T13:32:01,42.805,6.029,4330,1995,200.190,61.218,13.286
2017-10-07T13:35:01,42.805,6.029,4330,1995,200.200,61.221,13.286
2017-10-07T13:38:01,42.805,6.029,4330,1995,200.246,61.235,13.286
2017-10-07T13:41:01,42.805,6.029,4330,1995,200.073,61.183,13.286
2017-10-07T13:44:01,42.805,6.029,4330,1995,200.204,61.223,13.286
2017-10-07T13:47:01,42.805,6.029,4330,1995,200.252,61.237,13.286
2017-10-07T13:50:01,42.805,6.029,4330,1995,200.237,61.232,13.286
2017-10-07T13:53:01,42.805,6.029,4330,1995,200.279,61.245,13.286
2017-10-07T13:56:01,42.805,6.029,4330,1995,200.333,61.262,13.286
2017-10-07T13:59:01,42.805,6.029,4330,1995,200.312,61.255,13.286
2017-10-07T14:02:01,42.805,6.029,4330,1995,200.324,61.259,13.286
2017-10-07T14:05:01,42.805,6.029,4330,1995,200.281,61.246,13.286
2017-10-07T14:08:01,42.805,6.029,4330,1995,200.244,61.235,13.286
2017-10-07T14:11:01,42.805,6.029,4330,1995,200.354,61.268,13.286
2017-10-07T14:14:01,42.805,6.029,4330,1995,200.300,61.251,13.286
2017-10-07T14:17:01,42.805,6.029,4330,1995,200.351,61.267,13.286
2017-10-07T14:20:01,42.805,6.029,4330,1995,200.424,61.289,13.286
2017-10-07T14:23:01,42.805,6.029,4330,1995,200.408,61.284,13.286
2017-10-07T14:26:01,42.805,6.029,4330,1995,200.407,61.284,13.286
2017-10-07T14:29:01,42.805,6.029,4330,1995,200.339,61.264,13.286
2017-10-07T14:32:01,42.805,6.029,4330,1995,200.380,61.276,13.286
2017-10-07T14:35:01,42.805,6.029,4330,1995,200.449,61.297,13.285
2017-10-07T14:38:01,42.805,6.029,4330,1995,200.483,61.307,13.286
2017-10-07T14:41:01,42.805,6.029,4330,1995,200.519,61.318,13.286
2017-10-07T14:44:00,42.805,6.029,4330,1995,200.514,61.317,13.286
2017-10-07T14:47:00,42.805,6.029,4330,1995,200.559,61.330,13.286
2017-10-07T14:50:00,42.805,6.029,4330,1995,200.517,61.317,13.285
2017-10-07T14:53:00,42.805,6.029,4330,1995,200.553,61.329,13.286
2017-10-07T14:56:00,42.805,6.029,4330,1995,200.537,61.324,13.286
2017-10-07T14:59:00,42.805,6.029,4330,1995,200.523,61.320,13.286
2017-10-07T15:02:00,42.805,6.029,4330,1995,200.549,61.327,13.286
2017-10-07T15:05:00,42.805,6.029,4330,1995,200.573,61.334,13.285
2017-10-07T15:08:00,42.805,6.029,4330,1995,200.566,61.332,13.286
2017-10-07T15:11:00,42.805,6.029,4330,1995,200.618,61.349,13.286
2017-10-07T15:14:00,42.805,6.029,4330,1995,200.604,61.344,13.285
2017-10-07T15:17:00,42.805,6.029,4330,1995,200.529,61.321,13.286
2017-10-07T15:20:00,42.805,6.029,4330,1995,200.556,61.329,13.286
2017-10-07T15:23:00,42.805,6.029,4330,1995,200.625,61.351,13.285
2017-10-07T15:26:00,42.805,6.029,4330,1995,200.565,61.332,13.285
2017-10-07T15:29:00,42.805,6.029,4330,1995,200.613,61.347,13.286
2017-10-07T15:32:00,42.805,6.029,4330,1995,200.627,61.351,13.286
2017-10-07T15:35:00,42.805,6.029,4330,1995,200.644,61.356,13.286
2017-10-07T15:38:00,42.805,6.029,4330,1995,200.654,61.359,13.285
2017-10-07T15:41:00,42.805,6.029,4330,1995,200.684,61.368,13.286
2017-10-07T15:44:00,42.805,6.029,4330,1995,200.613,61.347,13.285
2017-10-07T15:47:00,42.805,6.029,4330,1995,200.704,61.375,13.285
2017-10-07T15:50:00,42.805,6.029,4330,1995,200.650,61.358,13.286
2017-10-07T15:53:00,42.805,6.029,4330,1995,200.612,61.346,13.286
2017-10-07T15:56:00,42.805,6.029,4330,1995,200.637,61.354,13.286
2017-10-07T15:59:00,42.805,6.029,4330,1995,200.564,61.332,13.285
2017-10-07T16:02:00,42.805,6.029,4330,1995,200.648,61.357,13.285
2017-10-07T16:05:00,42.805,6.029,4330,1995,200.632,61.352,13.285
2017-10-07T16:08:00,42.805,6.029,4330,1995,200.683,61.368,13.285
2017-10-07T16:11:00,42.805,6.029,4330,1995,200.651,61.358,13.285
2017-10-07T16:14:00,42.805,6.029,4330,1995,200.621,61.349,13.285
2017-10-07T16:17:00,42.805,6.029,4330,1995,200.618,61.348,13.285
2017-10-07T16:20:00,42.805,6.029,4330,1995,200.604,61.344,13.285
2017-10-07T16:23:00,42.805,6.029,4330,1995,200.599,61.342,13.286
2017-10-07T16:26:00,42.805,6.029,4330,1995,200.633,61.353,13.286
2017-10-07T16:29:00,42.805,6.029,4330,1995,200.600,61.343,13.285
2017-10-07T16:32:00,42.805,6.029,4330,1995,200.621,61.349,13.286
2017-10-07T16:35:00,42.805,6.029,4330,1995,200.565,61.332,13.286
2017-10-07T16:38:00,42.805,6.029,4330,1995,200.503,61.313,13.286
2017-10-07T16:41:00,42.805,6.029,4330,1995,200.463,61.301,13.286
2017-10-07T16:44:00,42.805,6.029,4330,1995,200.589,61.340,13.286
2017-10-07T16:47:00,42.805,6.029,4330,1995,200.563,61.331,13.285
2017-10-07T16:50:00,42.805,6.029,4330,1995,200.583,61.338,13.286
2017-10-07T16:53:00,42.805,6.029,4330,1995,200.617,61.348,13.285
2017-10-07T16:56:00,42.805,6.029,4330,1995,200.574,61.335,13.285
2017-10-07T16:59:00,42.805,6.029,4330,1995,200.610,61.346,13.285
2017-10-07T17:02:00,42.805,6.029,4330,1995,200.582,61.337,13.285
2017-10-07T17:05:00,42.805,6.029,4330,1995,200.616,61.348,13.285
2017-10-07T17:08:00,42.805,6.029,4330,1995,200.601,61.343,13.285
2017-10-07T17:11:00,42.805,6.029,4330,1995,200.591,61.340,13.285
2017-10-07T17:14:00,42.805,6.029,4330,1995,200.667,61.363,13.285
2017-10-07T17:17:00,42.805,6.029,4330,1995,200.583,61.338,13.285
2017-10-07T17:20:00,42.805,6.029,4330,1995,200.595,61.341,13.285
2017-10-07T17:23:00,42.805,6.029,4330,1995,200.647,61.357,13.285
2017-10-07T17:26:00,42.805,6.029,4330,1995,200.664,61.362,13.286
2017-10-07T17:29:00,42.805,6.029,4330,1995,200.643,61.356,13.286
2017-10-07T17:32:00,42.805,6.029,4330,1995,200.652,61.359,13.285
2017-10-07T17:35:00,42.805,6.029,4330,1995,200.609,61.345,13.285
2017-10-07T17:38:00,42.805,6.029,4330,1995,200.624,61.350,13.286
2017-10-07T17:41:00,42.805,6.029,4330,1995,200.583,61.338,13.285
2017-10-07T17:44:00,42.805,6.029,4330,1995,200.596,61.341,13.285
2017-10-07T17:47:00,42.805,6.029,4330,1995,200.617,61.349,13.286
2017-10-07T17:50:00,42.805,6.029,4330,1995,200.587,61.339,13.286
2017-10-07T17:53:00,42.805,6.029,4330,1995,200.612,61.347,13.285
2017-10-07T17:56:00,42.805,6.029,4330,1995,200.623,61.350,13.286
2017-10-07T17:59:00,42.805,6.029,4330,1995,200.672,61.365,13.286
2017-10-07T18:02:00,42.805,6.029,4330,1995,200.550,61.328,13.285
2017-10-07T18:05:00,42.805,6.029,4330,1995,200.536,61.323,13.285
2017-10-07T18:08:00,42.805,6.029,4330,1995,200.599,61.343,13.286